Location: *
(51.5000°N, 0.1100°W)
Time: 05:09:41
(UTC+00:00)

IDEFIX/ARIANE 42P - Pass Details

Date: 11 August 2024
Orbit: 782 x 799 km, 98.5° (Epoch: 08 September)

Event Time Altitude Azimuth Distance (km) Brightness Sun altitude
Rises 02:09:36 0° 13° (NNE) 3,284 7.2 -18.1°
Reaches altitude 10° 02:11:56 10° 12° (NNE) 2,352 6.1 -17.9°
Maximum altitude 02:17:07 75° 288° (WNW) 816 2.5 -17.5°
Enters shadow 02:19:45 30° 208° (SSW) 1,388 3.2 -17.2°
